Location: Newark
(45.6833°N, 12.6333°E)
Time: 05:16:24
(UTC+00:00)

N. Korean satellite - Pass Details

Date: 23 November 2019
Orbit: 455 x 506 km, 97.2° (Epoch: 12 December)

Event Time Altitude Azimuth Distance (km) Brightness Sun altitude
Rises 16:35:44 0° 183° (S) 2,570 10.5 -11.1°
Reaches altitude 10° 16:37:53 10° 191° (S) 1,699 9.7 -11.4°
Maximum altitude 16:41:21 40° 262° (W) 755 8.2 -12.0°
Drops below altitude 10° 16:44:53 10° 333° (NNW) 1,729 9.5 -12.6°
Sets 16:47:05 0° 341° (NNW) 2,622 10.3 -13.0°
